Regional Weather Roundup
Issued by NWS

Home | Current Version | Previous Version | Graphics & Text | Print | Product List | Glossary Off
Versions: 1 2 3 4 5 6 7 8 9 10 11 12 13 14 15 16 17 18 19 20 21 22 23 24 25 26 27 28 29 30 31 32 33 34 35 36 37 38 39 40 41 42 43 44 45 46 47 48 49 50

000
ASUS43 KLSX 222310
RWRMO

WEATHER SUMMARY FOR MISSOURI
NATIONAL WEATHER SERVICE SPRINGFIELD MO
500 PM CST SUN JAN 22 2017

NOTE: "FAIR" INDICATES FEW OR NO CLOUDS BELOW 12,000 FEET WITH NO
       SIGNIFICANT WEATHER AND/OR OBSTRUCTIONS TO VISIBILITY.
       CURRENT SKY AND/OR WEATHER CONDITIONS ARE NOT AVAILABLE FOR
       CHILLICOTHE AND FARMINGTON.

MOZ001>031-035>038-043-044-053-054-230000-
...NORTHERN AND WESTERN MISSOURI...

CITY           SKY/WX    TMP DP  RH WIND       PRES   REMARKS
KANSAS CTY INT CLOUDY    38  32  79 N14G22    29.78R WCI  30
KANSAS C DTWN  CLOUDY    39  33  79 NW7       29.79R
LEE`S SUMMIT   CLOUDY    37  33  85 N10       29.77R WCI  30
ST JOSEPH      CLOUDY    38  35  89 N20       29.81R WCI  28
CHILLICOTHE      N/A     41  35  79 NW12G17   29.76R
KIRKSVILLE     CLOUDY    40  36  86 N12       29.71R

$$
MOZ066>068-077>081-088>096-101>105-230000-
...SOUTHWEST MISSOURI...

CITY           SKY/WX    TMP DP  RH WIND       PRES   REMARKS
SPRINGFIELD    RAIN      44  42  93 N20G28    29.65R FOG
JOPLIN         MOCLDY    44  42  93 N16G24    29.73R
BRANSON        LGT RAIN  45  45 100 N18       29.61R

$$
MOZ032>034-039>042-045>050-055>058-069>072-230000-
...CENTRAL MISSOURI...

CITY           SKY/WX    TMP DP  RH WIND       PRES   REMARKS
COLUMBIA       CLOUDY    42  39  89 NW21      29.66R
JEFFERSON CITY CLOUDY    45  41  86 NW13      29.66R
ROLLA          CLOUDY    45  41  86 NW20G25   29.58R
SEDALIA        LGT RAIN  37  35  92 N18       29.74R WCI  27
WHITEMAN AFB   CLOUDY    36  36 100 NW9       29.73R WCI  29
WARRENSBURG    CLOUDY    36  32  87 NW7       29.76R WCI  30
OSAGE BEACH    CLOUDY    43  40  89 NW9G20    29.66R

$$
MOZ051-052-059>065-230000-
...EAST CENTRAL MISSOURI...

CITY           SKY/WX    TMP DP  RH WIND       PRES   REMARKS
ST LOUIS INTL  MOCLDY    51  42  71 N14       29.56R
SPIRIT OF STL  MOCLDY    52  40  63 N13G21    29.56R
ST CHARLES     PTCLDY    49  40  71 N14G29    29.57R

$$
MOZ072>076-082>087-097>100-106>115-230000-
...SOUTH CENTRAL AND SOUTHEAST MISSOURI...

CITY           SKY/WX    TMP DP  RH WIND       PRES   REMARKS
CAPE GIRARDEAU PTCLDY    57  50  77 N12G25    29.42R
FARMINGTON     CLOUDY    50  46  86 N15G23    29.48R
POPLAR BLUFF   MOCLDY    59  52  77 N13       29.40R
WEST PLAINS    CLOUDY    46  41  82 N16G26    29.53R

$$



USA.gov is the U.S. government's official web portal to all federal, state and local government web resources and services.